Regional Weather Roundup
Issued by NWS Charleston, SC

Current Version | Previous Version | Graphics & Text | Print | Product List | Glossary On
Versions: 1 2 3 4 5 6 7 8 9 10 11 12 13 14 15 16 17 18 19 20 21 22 23 24 25 26 27 28 29 30 31 32 33 34 35 36 37 38 39 40 41 42 43 44 45 46 47 48 49 50
000 ASUS42 KCHS 071527 RWRCHS REGIONAL WEATHER ROUNDUP NATIONAL WEATHER SERVICE CHARLESTON SC 1100 AM EDT TUE JUL 07 2015 NOTE: "FAIR" INDICATES FEW OR NO CLOUDS BELOW 12,000 FEET WITH NO SIGNIFICANT WEATHER AND/OR OBSTRUCTIONS TO VISIBILITY. NOT ALL STATIONS ARE QUALITY CONTROLLED BY THE NATIONAL WEATHER SERVICE. USE DATA WITH CAUTION...ESPECIALLY DEWPOINT OBSERVATIONS. SCZ027-030-031-034>040-042>050-071600- ...SOUTHEAST SOUTH CAROLINA... CITY SKY/WX TMP DP RH WIND PRES REMARKS N CHARLESTON MOSUNNY 86 72 62 SW8 30.15F HX 92 WATERFRONT PAR N/A 83 74 74 SW5 30.14R HX 90 MOUNT PLEASANT FAIR 84 73 70 SW6 30.16S HX 91 JOHNS ISLAND FAIR 86 75 70 S8 30.16S HX 95 PINOPOLIS NOT AVBL MONCKS CORNER FAIR 88 72 58 CALM 30.15F HX 94 SUMMERVILLE FAIR 86 73 66 SE3 30.17R HX 93 BEAUFORT MCAS MOSUNNY 88 73 61 S3 30.16S HX 95 BEAUFORT ARPT FAIR 86 73 66 CALM 30.16S HX 93 HILTON HEAD IS MOSUNNY 86 75 70 CALM 30.18R HX 95 WALTERBORO PTSUNNY 86 72 62 S9 30.16S HX 92 ALLENDALE FAIR 86 73 66 CALM 30.15S HX 93 ...SOUTHERN MIDLANDS AND PEE DEE... CITY SKY/WX TMP DP RH WIND PRES REMARKS GEORGETOWN NOT AVBL KINGSTREE NOT AVBL ORANGEBURG MOSUNNY 87 72 60 VRB5 30.15S HX 93 BARNWELL FAIR 88 73 62 S6 30.16S HX 96 AIKEN NOT AVBL MANNING FAIR 84 66 54 S6 30.15S COLUMBIA MOSUNNY 87 71 58 S7 30.13F HX 93 SUMTER MOSUNNY 86 72 62 SW5 30.13S HX 92 FLORENCE SUNNY 87 70 56 S7 30.14F HX 92 MYRTLE BEACH MOSUNNY 86 73 66 S10 30.18S HX 93 N MYRTLE BEACH SUNNY 83 74 74 S10 30.16S $$ GAZ063-065-086>088-099>101-113>116-118-119-134>141-150-071600- ...SOUTHEAST GEORGIA... CITY SKY/WX TMP DP RH WIND PRES REMARKS SAVANNAH ARPT MOSUNNY 85 71 63 VRB3 30.16F HX 90 HUNTER AAF SUNNY 86 75 68 W7 30.14S HX 95 FORT STEWART MOSUNNY 86 71 59 SW8 30.15S HX 91 STATESBORO NOT AVBL SYLVANIA PTSUNNY 86 75 69 W3 30.18R HX 95 CLAXTON PTSUNNY 84 73 70 W3 30.17S HX 91 ...CSRA...CENTRAL AND FAR SOUTHEAST GEORGIA... CITY SKY/WX TMP DP RH WIND PRES REMARKS THOMSON MOSUNNY 86 75 69 CALM 30.21R HX 94 AUGUSTA-BUSH SUNNY 85 72 65 SW3 30.14F HX 91 AUGUSTA-DANIEL SUNNY 86 73 65 CALM 30.16F HX 93 SWAINSBORO FAIR 86 73 66 W5 30.18F HX 93 VIDALIA PTSUNNY 84 70 61 W5 30.18F EASTMAN FAIR 86 71 61 W6 30.21S HX 91 HAZLEHURST FAIR 85 73 67 CALM 30.17F HX 92 ALMA SUNNY 84 71 65 VRB5 30.18S WAYCROSS PTSUNNY 89 76 67 W3 30.18S HX 100 JESUP FAIR 88 73 62 CALM 30.17S HX 96 BAXLEY FAIR 86 72 62 NW6 30.18S HX 92 BRUNSWICK SUNNY 88 72 58 CALM 30.18S HX 94 SAINT SIMONS SUNNY 85 72 65 VRB3 30.17F HX 91 $$ SCZ027-028-034-036>038-045-046-048>050-GAZ119-141-071600- ...LAKE AND SUPPLEMENTAL COASTAL OBSERVATIONS... STATION/POSITION TIME TEMP WIND PRES WAVE SWELL AIR SEA DIR/SP/G HT/PER HT/PER/DIR (UTC) (F) (DEG/KT/KT) (MB) (FT/S) (FT/S/D) UPR LAKE MARION NOT AVBL WINYAH BAY 1400 82 240/ 5 1020.0S LAKE MURRAY 1400 81 190/ 5/ 6 1020.3S ACE BASIN NERRS 1400 84 CALM 1021.0 FORT PULASKI 1400 83 83 200/ 2/ 5 1022.0S SAPELO ISLAND 1500 86 220/ 3 1022.0S $$ ANZ835-935-AMZ111-154-330-350-352-354-370-450-454-472-071600- ...C-MAN AND BUOY OBSERVATIONS... STATION/POSITION TIME TEMP WIND PRES WAVE SWELL AIR SEA DIR/SP/G HT/PER HT/PER/DIR (UTC) (F) (DEG/KT/KT) (MB) (FT/S) (FT/S/D) BUOY 41004 1450 81 83 210/ 10/ 12 1021.1F 3/ 9 3/ 9 BUOY 41008 1450 78 79 220/ 8/ 10 1022.0F 2/ 8 2/110/ 8 FOLLY BEACH CMAN 1500 82 200/ 8/ 10 1021.5F CAPERS NEARSHORE NOT AVBL FRIPP NEARSHORE NOT AVBL STATION/POSITION TIME TEMP WIND PRES WAVE SWELL AIR SEA DIR/SP/G HT/PER HT/PER/DIR (UTC) (F) (DEG/KT/KT) (MB) (FT/S) (FT/S/D) 5E ST. MARYS GA 1421 78 N/A 2/ 8 FRYING PAN BUOY 1450 81 80 230/ 6/ 8 1021.9F 3/ 8 3/140/ 8 BUOY 41025 1450 81 83 230/ 10/ 12 1021.1R 3/ 8 2/140/ 8 CAPE LOOKOUT NC 1500 81 250/ 8/ 10 1021.0S BUOY 41002 1450 83 81 200/ 8/ 12 1023.5S 4/ 8 3/140/ 8 BUOY 41010 1420 83 83 CALM / 2 1022.7S ST AUGUSTINE FL 1500 74 72 140/ 7/ 7 1022.8F $$

USA.gov is the U.S. government's official web portal to all federal, state and local government web resources and services.